Location: Cicognara
(44.9500°N, 10.4667°E)
Time: 22:39:18
(UTC+00:00)

Cosmos 2058 Rocket - Pass Details

Date: 20 June 2021
Orbit: 609 x 640 km, 82.5° (Epoch: 23 July)

Event Time Altitude Azimuth Distance (km) Brightness Sun altitude
Rises 22:57:10 0° 341° (NNW) 2,922 7.9 -21.4°
Reaches altitude 10° 22:59:36 10° 331° (NNW) 2,005 6.6 -21.5°
Maximum altitude 23:03:28 30° 270° (W) 1,121 4.4 -21.5°
Enters shadow 23:04:23 27° 247° (WSW) 1,185 4.3 -21.5°
